This is the latest recevied weather packets stored in our database for station/object SQ9RHX-13. If no packets are shown the sender has not sent any weather packets the latest 10 day(s).
| Time | Temp. | Humidity | Pressure | Rain* | Wind** | Luminosity | Snow |
|---|---|---|---|---|---|---|---|
| 1778061904 | 21.67° C | 51% | 1010.1 hPa | 0 mm | - | 296 W/m² | - |
| 1778061605 | 21.67° C | 50% | 1010 hPa | 0 mm | - | 579 W/m² | - |
| 1778061304 | 21.67° C | 51% | 1009.9 hPa | 0 mm | - | 782 W/m² | - |
| 1778061003 | 21.67° C | 52% | 1009.9 hPa | 0 mm | - | 683 W/m² | - |
| 1778060704 | 21.11° C | 53% | 1009.8 hPa | 0 mm | - | 578 W/m² | - |
| 1778060403 | 21.11° C | 54% | 1009.9 hPa | 0 mm | - | 465 W/m² | - |
| 1778060104 | 20.56° C | 56% | 1009.8 hPa | 0 mm | - | 498 W/m² | - |
| 1778059803 | 20.56° C | 56% | 1009.8 hPa | 0 mm | - | 272 W/m² | - |
| 1778059504 | 20° C | 59% | 1009.8 hPa | 0 mm | - | 491 W/m² | - |
| 1778059204 | 19.44° C | 61% | 1010 hPa | 0 mm | - | 578 W/m² | - |
| 1778058904 | 20° C | 60% | 1010 hPa | 0 mm | - | 225 W/m² | - |
| 1778058602 | 19.44° C | 60% | 1010 hPa | 0 mm | - | 142 W/m² | - |
| 1778058304 | 19.44° C | 61% | 1009.8 hPa | 0 mm | - | 205 W/m² | - |
| 1778058004 | 19.44° C | 61% | 1009.7 hPa | 0 mm | - | 184 W/m² | - |
| 1778057704 | 19.44° C | 60% | 1009.9 hPa | 0 mm | - | 176 W/m² | - |
| 1778057403 | 20° C | 60% | 1009.6 hPa | 0 mm | - | 142 W/m² | - |
| 1778057104 | 20° C | 59% | 1009.6 hPa | 0 mm | - | 247 W/m² | - |
| 1778056803 | 20.56° C | 60% | 1009.7 hPa | 0 mm | - | 396 W/m² | - |
| 1778056503 | 20.56° C | 59% | 1009.7 hPa | 0 mm | - | 334 W/m² | - |
| 1778056203 | 20.56° C | 59% | 1009.7 hPa | 0 mm | - | 507 W/m² | - |
| 1778055903 | 20.56° C | 60% | 1009.8 hPa | 0 mm | - | 430 W/m² | - |
| 1778055605 | 20° C | 60% | 1009.7 hPa | 0 mm | - | 384 W/m² | - |
| 1778055303 | 19.44° C | 63% | 1009.8 hPa | 0 mm | - | 500 W/m² | - |
| 1778055002 | 20° C | 61% | 1009.7 hPa | 0 mm | - | 265 W/m² | - |
| 1778054703 | 19.44° C | 63% | 1009.8 hPa | 0 mm | - | 402 W/m² | - |
* Rain latest hour (hover to see other rain measurements)
** Current wind speed in m/s (hover to see current wind gust speed)